Location: Munderkingen
(48.2395°N, 9.6433°E)
Time: 14:00:28
(UTC+02:00)

ISS - Pass Details

Date: 28 March 2017
Orbit: 400 x 409 km, 51.6° (Epoch: 23 April)

Event Time Altitude Azimuth Distance (km) Brightness Sun altitude
Rises 22:28:32 0° 252° (WSW) 2,315 0.4 -25.6°
Reaches altitude 10° 22:30:36 10° 254° (WSW) 1,459 -0.6 -25.8°
Enters shadow 22:31:06 14° 255° (WSW) 1,259 -1.0 -25.9°
